GW4639 Weather Reports


time (UTC)temp
C
wind
direction
speed
KPH
gust
KPH
rain 1hr
cm
rain 24hr
cm
rain mn
cm
humidity
%
barometer
mb
20260503200831 18 96 9.7 12.9 0.00 0.00 0.00 55 1007.0
20260503200326 18 99 8.0 12.9 0.00 0.00 0.00 55 1007.0
20260503195824 18 210 3.2 3.2 0.00 0.00 0.00 55 1007.0
20260503195320 18 115 8.0 9.7 0.00 0.00 0.00 56 1007.3
20260503194818 18 172 3.2 3.2 0.00 0.00 0.00 56 1007.3
20260503194314 18 75 8.0 12.9 0.00 0.00 0.00 55 1007.3
20260503193810 18 113 4.8 8.0 0.00 0.00 0.00 56 1007.0
20260503193306 18 103 6.4 12.9 0.00 0.00 0.00 55 1007.0
20260503192802 18 161 4.8 4.8 0.00 0.00 0.00 56 1007.3
20260503192257 18 161 4.8 4.8 0.00 0.00 0.00 53 1007.3
20260503191754 18 135 8.0 11.3 0.00 0.00 0.00 54 1007.3
20260503191251 18 126 8.0 11.3 0.00 0.00 0.00 55 1007.3
20260503190748 18 102 11.3 16.1 0.00 0.00 0.00 56 1007.3
20260503190245 18 47 6.4 11.3 0.00 0.00 0.00 57 1007.7
20260503185742 17 101 8.0 9.7 0.00 0.00 0.00 57 1007.7
20260503185238 17 144 6.4 8.0 0.00 0.00 0.00 58 1008.0
20260503184732 18 105 12.9 17.7 0.00 0.00 0.00 55 1008.0
20260503184229 18 70 6.4 11.3 0.00 0.00 0.00 58 1007.7
20260503183725 17 77 4.8 8.0 0.00 0.00 0.00 60 1008.0
20260503183223 17 103 8.0 9.7 0.00 0.00 0.00 59 1008.0
20260503182721 17 106 8.0 9.7 0.00 0.00 0.00 59 1008.0
20260503182219 17 99 9.7 12.9 0.00 0.00 0.00 57 1008.0
20260503181715 17 65 9.7 14.5 0.00 0.00 0.00 59 1008.0
20260503181213 17 43 11.3 14.5 0.00 0.00 0.00 59 1008.3
20260503180709 17 58 11.3 17.7 0.00 0.00 0.00 58 1008.3
20260503180208 17 132 11.3 20.9 0.00 0.00 0.00 59 1008.3
20260503175704 16 153 4.8 8.0 0.00 0.00 0.00 63 1008.7
20260503175202 16 64 16.1 25.7 0.00 0.00 0.00 59 1008.7
20260503174657 16 37 11.3 14.5 0.00 0.00 0.00 62 1008.7
20260503174155 16 148 8.0 14.5 0.00 0.00 0.00 62 1008.7
20260503173650 16 91 4.8 4.8 0.00 0.00 0.00 61 1008.7
20260503173146 16 109 8.0 11.3 0.00 0.00 0.00 61 1009.0
20260503172644 16 65 4.8 8.0 0.00 0.00 0.00 64 1009.0
20260503172141 15 44 6.4 11.3 0.00 0.00 0.00 64 1009.3
20260503171637 15 61 4.8 8.0 0.00 0.00 0.00 66 1009.3
20260503171135 15 46 12.9 16.1 0.00 0.00 0.00 63 1009.3
20260503170632 15 140 3.2 3.2 0.00 0.00 0.00 67 1009.3
20260503170128 14 44 8.0 11.3 0.00 0.00 0.00 67 1009.7
20260503150520 13 150 4.8 4.8 0.00 0.00 0.00 66 1010.8
20260503131413 11 173 1.6 3.2 0.00 0.00 0.00 65 1011.8
20260503130910 10 106 4.8 8.0 0.00 0.00 0.00 68 1011.8
20260503130407 10 136 3.2 4.8 0.00 0.00 0.00 68 1011.8
20260503110811 8 111 3.2 4.8 0.00 0.00 0.00 66 1011.8
20260503110308 8 110 1.6 1.6 0.00 0.00 0.00 66 1011.5
20260503100234 8 98 4.8 11.3 0.00 0.00 0.00 64 1012.2
20260503090159 9 208 4.8 8.0 0.00 0.00 0.00 63 1012.2
20260503081636 8 62 4.8 4.8 0.00 0.00 0.00 66 1012.8
20260503081132 8 74 3.2 3.2 0.00 0.00 0.00 66 1012.8
20260503080628 8 22 3.2 3.2 0.00 0.00 0.00 66 1013.2
20260503080125 8 24 1.6 1.6 0.00 0.00 0.00 67 1013.2
20260503072602 8 85 4.8 4.8 0.00 0.00 0.00 65 1013.2
20260503072059 8 77 3.2 3.2 0.00 0.00 0.00 66 1013.2
20260503071556 8 66 3.2 3.2 0.00 0.00 0.00 65 1013.2
20260503071053 8 26 1.6 3.2 0.00 0.00 0.00 65 1013.2
20260503070549 8 95 8.0 11.3 0.00 0.00 0.00 66 1013.2
20260503054843 7 64 1.6 1.6 0.00 0.00 0.00 66 1013.9
20260503054334 7 63 1.6 1.6 0.00 0.00 0.00 68 1013.9
20260503053832 7 347 1.6 1.6 0.00 0.00 0.00 69 1013.9
20260503053330 7 343 0.0 0.0 0.00 0.00 0.00 70 1014.3
20260503052826 6 8 4.8 4.8 0.00 0.00 0.00 70 1014.3
20260503052323 6 343 0.0 1.6 0.00 0.00 0.00 71 1014.3
20260503051819 6 343 0.0 0.0 0.00 0.00 0.00 72 1014.3
20260503051316 6 350 1.6 3.2 0.00 0.00 0.00 72 1014.3
20260503050812 6 343 0.0 0.0 0.00 0.00 0.00 73 1014.3
20260503050309 6 343 1.6 1.6 0.00 0.00 0.00 75 1014.3
20260503045807 5 343 0.0 1.6 0.00 0.00 0.00 78 1014.3
20260503045305 5 343 0.0 1.6 0.00 0.00 0.00 79 1014.3
20260503044800 5 343 0.0 0.0 0.00 0.00 0.00 79 1014.3
20260503044257 5 343 0.0 0.0 0.00 0.00 0.00 80 1014.6
20260503043755 5 343 0.0 0.0 0.00 0.00 0.00 81 1014.3
20260503043251 5 343 0.0 0.0 0.00 0.00 0.00 82 1014.3
20260503042747 5 343 0.0 0.0 0.00 0.00 0.00 83 1014.6
20260503042244 4 343 0.0 0.0 0.00 0.00 0.00 84 1014.6
20260503041739 4 343 0.0 0.0 0.00 0.00 0.00 83 1014.6
20260503041237 4 343 0.0 0.0 0.00 0.00 0.00 83 1014.6
20260503040735 4 343 0.0 0.0 0.00 0.00 0.00 83 1015.0
20260503040232 4 343 0.0 0.0 0.00 0.00 0.00 82 1015.0
20260503035729 5 343 0.0 0.0 0.00 0.00 0.00 82 1015.0
20260503035226 5 343 0.0 0.0 0.00 0.00 0.00 81 1014.6
20260503034724 5 343 0.0 0.0 0.00 0.00 0.00 80 1014.6
20260503034220 5 343 0.0 0.0 0.00 0.00 0.00 80 1015.0
20260503033718 5 343 0.0 0.0 0.00 0.00 0.00 80 1015.0
20260503033215 5 343 0.0 0.0 0.00 0.00 0.00 80 1015.0
20260503032714 5 343 0.0 0.0 0.00 0.00 0.00 80 1015.0
20260503032212 5 343 0.0 0.0 0.00 0.00 0.00 79 1015.3
20260503031708 5 343 1.6 1.6 0.00 0.00 0.00 78 1015.3
20260503031207 6 343 0.0 0.0 0.00 0.00 0.00 78 1015.0
20260503030702 6 343 1.6 1.6 0.00 0.00 0.00 77 1015.3
20260503030159 6 343 1.6 1.6 0.00 0.00 0.00 77 1015.3
20260503025656 6 343 0.0 1.6 0.00 0.00 0.00 77 1015.3
20260503025154 6 343 0.0 1.6 0.00 0.00 0.00 76 1015.6
20260503024650 6 343 0.0 1.6 0.00 0.00 0.00 76 1015.6
20260503024148 6 343 0.0 1.6 0.00 0.00 0.00 76 1015.6
20260503023644 6 343 3.2 3.2 0.00 0.00 0.00 76 1015.3
20260503023141 6 344 1.6 1.6 0.00 0.00 0.00 76 1015.6
20260503022637 6 343 0.0 0.0 0.00 0.00 0.00 75 1015.6
20260503022132 6 343 1.6 1.6 0.00 0.00 0.00 75 1015.6
20260503021629 6 343 1.6 1.6 0.00 0.00 0.00 74 1015.6
20260503021126 6 342 1.6 1.6 0.00 0.00 0.00 74 1015.3
20260503020623 6 342 0.0 1.6 0.00 0.00 0.00 74 1015.3
20260503020120 6 342 1.6 1.6 0.00 0.00 0.00 73 1015.3
20260503015617 6 342 1.6 1.6 0.00 0.00 0.00 73 1015.3
20260503015114 6 343 3.2 3.2 0.00 0.00 0.00 73 1015.3
20260503014609 7 343 1.6 1.6 0.00 0.00 0.00 72 1015.3
20260503014107 7 342 1.6 1.6 0.00 0.00 0.00 72 1015.3
20260503013605 7 342 1.6 1.6 0.00 0.00 0.00 71 1015.0
20260503013103 7 17 1.6 1.6 0.00 0.00 0.00 70 1015.0
20260503012600 7 340 1.6 1.6 0.00 0.00 0.00 70 1015.0
20260503012056 7 340 1.6 1.6 0.00 0.00 0.00 70 1015.0
20260503011552 7 341 4.8 4.8 0.00 0.00 0.00 69 1015.3
20260503011050 7 338 1.6 1.6 0.00 0.00 0.00 69 1015.0
20260503010546 8 339 3.2 3.2 0.00 0.00 0.00 70 1015.0
20260503010044 8 339 0.0 0.0 0.00 0.00 0.00 70 1015.3
20260503005540 8 340 1.6 1.6 0.00 0.00 0.00 70 1015.3
20260503005038 8 342 3.2 3.2 0.00 0.00 0.00 69 1015.3
20260503004534 8 338 3.2 3.2 0.00 0.00 0.00 70 1015.3
20260503004032 8 350 4.8 4.8 0.00 0.00 0.00 69 1015.3
20260503003528 8 339 3.2 3.2 0.00 0.00 0.00 69 1015.3
20260503003026 9 337 4.8 4.8 0.00 0.00 0.00 68 1015.3
20260503002523 9 349 4.8 4.8 0.00 0.00 0.00 67 1015.3
20260503002019 9 328 0.0 0.0 0.00 0.00 0.00 67 1015.3
20260503001516 9 335 3.2 3.2 0.00 0.00 0.00 67 1015.3
20260503001013 10 340 3.2 4.8 0.00 0.00 0.00 66 1015.3
20260503000511 10 10 6.4 9.7 0.00 0.00 0.00 65 1015.3
20260503000007 10 341 4.8 4.8 0.00 0.00 0.00 65 1015.6
20260502235504 10 21 6.4 8.0 0.00 0.00 0.00 64 1015.3
20260502235002 10 351 3.2 3.2 0.00 0.00 0.00 64 1015.6
20260502234458 10 339 1.6 3.2 0.00 0.00 0.00 65 1015.3
20260502233956 10 320 3.2 4.8 0.00 0.00 0.00 64 1015.6
20260502233456 10 15 4.8 4.8 0.00 0.00 0.00 64 1015.6
20260502232953 10 337 3.2 3.2 0.00 0.00 0.00 64 1015.6
20260502232450 10 1 3.2 4.8 0.00 0.00 0.00 64 1015.6
20260502231946 10 332 6.4 8.0 0.00 0.00 0.00 63 1015.6
20260502231444 10 350 6.4 9.7 0.00 0.00 0.00 63 1015.6
20260502230942 10 344 4.8 4.8 0.00 0.00 0.00 63 1016.0
20260502230439 10 4 6.4 8.0 0.00 0.00 0.00 62 1016.0
20260502225937 10 47 6.4 8.0 0.00 0.00 0.00 62 1016.0
20260502225433 10 354 4.8 4.8 0.00 0.00 0.00 61 1016.0
20260502224930 10 9 3.2 3.2 0.00 0.00 0.00 61 1016.0
20260502224426 10 353 4.8 4.8 0.00 0.00 0.00 60 1016.0
20260502223923 10 319 3.2 3.2 0.00 0.00 0.00 59 1016.3
20260502223421 10 23 6.4 8.0 0.00 0.00 0.00 59 1016.3
20260502222919 10 348 4.8 4.8 0.00 0.00 0.00 59 1016.0
20260502222416 10 342 1.6 3.2 0.00 0.00 0.00 59 1016.3
20260502221911 10 10 8.0 9.7 0.00 0.00 0.00 61 1016.3
20260502221408 10 36 11.3 14.5 0.00 0.00 0.00 57 1016.7
20260502220905 10 46 8.0 9.7 0.00 0.00 0.00 58 1016.3
20260502220401 11 4 8.0 8.0 0.00 0.00 0.00 58 1016.3
20260502215857 11 34 4.8 4.8 0.00 0.00 0.00 55 1016.7
20260502215355 12 61 8.0 9.7 0.00 0.00 0.00 55 1016.7
20260502214851 13 21 3.2 3.2 0.00 0.00 0.00 49 1016.3
20260502214348 13 267 3.2 3.2 0.00 0.00 0.00 48 1016.7
20260502213846 13 68 3.2 3.2 0.00 0.00 0.00 48 1016.7
20260502213343 13 251 3.2 3.2 0.00 0.00 0.00 46 1016.7
20260502212842 13 236 1.6 1.6 0.00 0.00 0.00 45 1016.7
20260502212340 14 85 4.8 4.8 0.00 0.00 0.00 45 1016.7
20260502211836 13 81 4.8 8.0 0.00 0.00 0.00 45 1016.7
20260502211331 13 22 3.2 3.2 0.00 0.00 0.00 46 1016.7
20260502210829 14 309 1.6 1.6 0.00 0.00 0.00 47 1017.0
20260502210327 14 86 4.8 4.8 0.00 0.00 0.00 47 1016.7
20260502205824 13 297 0.0 1.6 0.00 0.00 0.00 49 1017.0
20260502205319 12 267 1.6 3.2 0.00 0.00 0.00 47 1017.0
20260502204817 12 37 3.2 4.8 0.00 0.00 0.00 49 1017.0
20260502204314 12 165 1.6 3.2 0.00 0.00 0.00 50 1017.0
20260502203812 12 249 1.6 1.6 0.00 0.00 0.00 46 1017.0
20260502203309 12 271 1.6 1.6 0.00 0.00 0.00 47 1017.3
20260502202808 12 61 0.0 0.0 0.00 0.00 0.00 49 1017.3
20260502202307 12 199 1.6 3.2 0.00 0.00 0.00 47 1017.3
20260502201804 12 286 0.0 0.0 0.00 0.00 0.00 47 1017.3
20260502201300 12 230 1.6 3.2 0.00 0.00 0.00 48 1017.3